Seattle, WA
on Saturday, January 12, 2013

Saturday
Previous Day Next Day
Daily Summary
 ActualAverageRecord
Temperature
Mean Temperature °F 42°F  
Max Temperature 37°F 47°F 59°F (1986)
Min Temperature 25°F 37°F 13°F (1963)
Degree Days
Heating Degree Days 34 23  
Month to date heating degree days 312 284  
Since 1 July heating degree days 2063 2222  
Cooling Degree Days 0 0  
Month to date cooling degree days 0 0  
Year to date cooling degree days 0 0  
Moisture
Dew Point 22°F   
Average Humidity 68    
Maximum Humidity 81    
Minimum Humidity 54    
Precipitation
Precipitation 0.00 in 0.19 in 1.30 in (1975)
Month to date precipitation 2.71 2.27  
Year to date precipitation 2.71 2.27  
Snow
Snow 0.00 in in 1.80 in (1969)
Month to date snowfall T  
Since 1 July snowfall 0.6  
Snow Depth 0.00 in   
Wind
Wind Speed 5 mph   
Max Wind Speed 12 mph   
Max Gust Speed 13 mph   
Visibility 10 miles   
Events     

Key: T is trace of precipitation, MM is missing value
Source: NWS Daily Summary
Time(PST)TemperatureDew PointHumidity Pressure Visibility Wind DirectionWind SpeedGust SpeedPrecipitationEvents Conditions
12:53 AM 28.0°F 23.0°F 81% 30.34 in 10.0 miles SE 3.5 mph - N/A   Scattered Clouds
1:53 AM 28.0°F 21.9°F 78% 30.35 in 10.0 miles East 4.6 mph - N/A   Scattered Clouds
2:53 AM 27.0°F 21.9°F 81% 30.35 in 10.0 miles ESE 4.6 mph - N/A   Scattered Clouds
3:53 AM 27.0°F 21.9°F 81% 30.35 in 10.0 miles ESE 3.5 mph - N/A   Partly Cloudy
4:53 AM 26.1°F 21.0°F 81% 30.36 in 10.0 miles ESE 4.6 mph - N/A   Scattered Clouds
5:53 AM 28.0°F 21.9°F 78% 30.36 in 10.0 miles East 4.6 mph - N/A   Scattered Clouds
6:53 AM 28.0°F 21.9°F 78% 30.37 in 10.0 miles ESE 5.8 mph - N/A   Mostly Cloudy
7:53 AM 28.0°F 21.9°F 78% 30.39 in 10.0 miles SE 4.6 mph - N/A   Mostly Cloudy
8:53 AM 28.4°F 21.2°F 74% 30.37 in 10.0 miles ESE 3.5 mph - N/A   Mostly Cloudy
9:53 AM 30.0°F 23.0°F 75% 30.41 in 10.0 miles ESE 3.5 mph - N/A   Scattered Clouds
10:53 AM 34.0°F 25.0°F 70% 30.41 in 10.0 miles Calm Calm - N/A   Scattered Clouds
11:53 AM 36.0°F 25.0°F 64% 30.40 in 10.0 miles Calm Calm - N/A   Scattered Clouds
12:53 PM 37.0°F 24.1°F 59% 30.40 in 10.0 miles NNE 6.9 mph - N/A   Scattered Clouds
1:53 PM 36.0°F 21.0°F 55% 30.41 in 10.0 miles NNE 9.2 mph - N/A   Scattered Clouds
2:53 PM 37.0°F 23.0°F 57% 30.41 in 10.0 miles North 6.9 mph - N/A   Scattered Clouds
3:53 PM 35.1°F 21.0°F 57% 30.42 in 10.0 miles NNE 8.1 mph - N/A   Partly Cloudy
4:53 PM 30.9°F 19.9°F 64% 30.42 in 10.0 miles North 5.8 mph - N/A   Partly Cloudy
5:53 PM 30.9°F 19.9°F 64% 30.42 in 10.0 miles NE 4.6 mph - N/A   Mostly Cloudy
6:30 PM 30.2°F 21.2°F 69% 30.39 in 10.0 miles ENE 4.6 mph - N/A   Scattered Clouds
6:53 PM 30.9°F 21.9°F 69% 30.43 in 10.0 miles NE 3.5 mph - N/A   Scattered Clouds
7:53 PM 30.0°F 21.0°F 69% 30.44 in 10.0 miles NNE 6.9 mph - N/A   Partly Cloudy
8:53 PM 30.0°F 21.9°F 72% 30.44 in 10.0 miles NNE 3.5 mph - N/A   Partly Cloudy
9:53 PM 28.9°F 21.9°F 75% 30.44 in 10.0 miles ENE 3.5 mph - N/A   Clear
10:53 PM 27.0°F 21.0°F 78% 30.45 in 10.0 miles ENE 3.5 mph - N/A   Clear
11:53 PM 27.0°F 21.0°F 78% 30.46 in 10.0 miles East 3.5 mph - N/A   Clear
Moon Phase
Jan. 12 Jan. 18 Jan. 26 Feb. 03 Feb. 10
Sunrise:07:53 AM (PST) Moon Rise:08:08 AM (PST)1/12
Sunset:04:42 PM (PST) Moon Set:06:26 PM (PST)1/12

Copyright © 2014 The Weather Underground, Inc.